Regional Weather Roundup
Issued by NWS

Home | Current Version | Previous Version | Text Only | Print | Product List | Glossary Off
Versions: 1 2 3 4 5 6 7 8 9 10 11 12 13 14 15 16 17 18 19 20 21 22 23 24 25 26 27 28 29 30 31 32 33 34 35 36 37 38 39 40 41 42 43 44 45 46 47 48 49 50

000
ASUS43 KDTX 181710
RWRMI
MICHIGAN HOURLY REGIONAL WEATHER ROUNDUP
NATIONAL WEATHER SERVICE DETROIT/PONTIAC MI
100 PM EDT THU SEP 18 2014

NOTE: "FAIR" INDICATES FEW OR NO CLOUDS BELOW 12,000 FEET WITH NO
SIGNIFICANT WEATHER AND/OR OBSTRUCTION TO VISIBILITY.

MIZ047>049-052>055-059>063-066>070-074>076-081>083-181800-
SOUTHEAST LOWER MICHIGAN

CITY           SKY/WX    TMP DP  RH WIND       PRES   REMARKS
ADRIAN         MOSUNNY   66  49  54 VRB3      30.16R
ALMA           CLOUDY    55  51  87 E7        30.19S
ANN ARBOR      MOSUNNY   66  49  54 NW6       30.15S
BAD AXE        CLOUDY    55  46  72 N7G16     30.20R
DETROIT CITY   PTSUNNY   67  49  52 CALM      30.16R
DETROIT        PTSUNNY   65  50  58 N5        30.16R
FLINT          CLOUDY    62  51  67 N5        30.18R
GROSSE ILE     PTSUNNY   66  54  63 NE8       30.14S
HILLSDALE      SUNNY     67  48  50 N3        30.16S
HOWELL         CLOUDY    59  50  71 NE3       30.17S

CITY           SKY/WX    TMP DP  RH WIND       PRES   REMARKS
JACKSON        MOSUNNY   64  51  62 CALM      30.16S
LAMBERTVILLE   CLOUDY    66  52  59 CALM      30.15S
LANSING        CLOUDY    60  50  69 N6        30.18S
LAPEER         NOT AVBL
MASON          PTSUNNY   62  52  71 N3        30.17S
MONROE         MOSUNNY   68  52  56 NE3       30.13S
PONTIAC        PTSUNNY   62  49  62 W5        30.16S
PORT HOPE        N/A     52  41  66 NE12      30.20R
PORT HURON     CLOUDY    57  52  82 N9        30.17R
TRI CITIES     CLOUDY    54  49  83 E8        30.22R
YPSILANTI      PTSUNNY   70  50  49 N7        30.16R
$$
MIZ043>046-050>051-056>058-064>065-071>073-077>080-181800-
SOUTHWEST LOWER MICHIGAN

CITY           SKY/WX    TMP DP  RH WIND       PRES   REMARKS
BATTLE CREEK   SUNNY     64  49  57 NE6       30.17S
BENTON HARBOR    N/A    N/A N/A N/A MISG      30.15S
BIG RAPIDS     CLOUDY    55  52  89 CALM      30.19R
COLDWATER      SUNNY     66  47  49 CALM      30.15F
HOLLAND        MOSUNNY   68  51  54 CALM      30.17S
GRAND RAPIDS   PTSUNNY   64  54  69 NE5       30.17F
KALAMAZOO      SUNNY     67  47  48 VRB3      30.16F
MARSHALL       SUNNY     63  51  64 NW5       30.16S
MUSKEGON       MOSUNNY   65  52  62 SE5       30.17S
$$
MIZ016>042-181800-
NORTHERN LOWER MICHIGAN

CITY           SKY/WX    TMP DP  RH WIND       PRES   REMARKS
ALPENA         CLOUDY    50  36  58 SE8       30.24R
BEAVER ISLAND  CLOUDY    53  40  62 E7        30.23S
BELLAIRE       PTSUNNY   55  39  54 NE6       30.22R
CADILLAC       PTSUNNY   53  46  77 CALM      30.18S
CHARLEVOIX     MOSUNNY   53  40  59 E9        30.25S
FRANKFORT      CLOUDY    58  44  59 NE6       30.19S
GAYLORD        CLOUDY    48  36  63 VRB5      30.22R
GRAYLING       CLOUDY    51  42  71 SE3       30.23R
HARBOR SPRINGS PTSUNNY   53  38  57 NE6       30.23R
HOUGHTON LAKE  CLOUDY    50  44  80 NE6       30.21R
MANISTEE       PTSUNNY   57  45  62 SW3       30.20S
OSCODA         CLOUDY    51  41  69 NE8       30.22R
PELLSTON       PTSUNNY   52  36  54 NE7       30.23S
TRAVERSE CITY  PTSUNNY   56  41  57 N7        30.19S
$$
MIZ007>008-015-181800-
EASTERN UPPER MICHIGAN

CITY           SKY/WX    TMP DP  RH WIND       PRES   REMARKS
KINROSS        PTSUNNY   46  36  66 SE9       30.25R
MACKINAC ISLAN PTSUNNY   48  38  66 E10       30.24R
NEWBERRY       MOSUNNY   49  35  58 NE3       30.23S
S. S. MARIE    MOSUNNY   47  31  53 E5        30.25R
$$
MIZ004>006-011>014-085-181800-
CENTRAL UPPER MICHIGAN

CITY           SKY/WX    TMP DP  RH WIND       PRES   REMARKS
MANISTIQUE     PTSUNNY   50  38  62 E3        30.23S
ESCANABA       CLOUDY    48  37  66 SE5       30.23S
MENOMINEE      PTSUNNY   52  39  62 E10       30.22S
SAWYER-GWINN   MOSUNNY   48  34  57 S3        30.21F
$$
MIZ001>003-009>011-084-181800-
WESTERN UPPER MICHIGAN

CITY           SKY/WX    TMP DP  RH WIND       PRES   REMARKS
IRON MOUNTAIN  SUNNY     51  36  56 S6        30.20F
HOUGHTON       CLOUDY    49  35  58 SE12      30.20S
COPPER HARBOR    N/A     47  33  58 VRB5      30.22F
IRONWOOD       CLOUDY    48  45  87 S8        30.15S
$$

ABBREVIATIONS USED IN REMARKS
   TC - TEMPERATURE IN CELSIUS
  WCI - WIND CHILL INDEX
   HX - HEAT INDEX
  VSB - VISIBILITY




USA.gov is the U.S. government's official web portal to all federal, state and local government web resources and services.